Content
SEND FEEDBACK

Daily
Averages
Monthly
Summary
Thailand

BANGKOK, THAILAND


Home > Asia > Thailand
Elevation: 66 feet     Latitude: 13 44N     Longitude: 100 34E

WEATHER
 
SELECT A DAY
Number of Records: 241,784;   Date Range: 7/1/96 - 9/30/14
 
SHARE

PRINT THIS DATA

[ ← Previous Day ]
WEATHER ALMANAC - MAY 7, 2013
[ Next Day → ]
[ °C ]   °F
Weather ElementAverageHighLow
Temperature87.7 °F98.6 °F (3:30 pm)78 °F (1:00 am)
Dewpoint75.3 °F78.8 °F (10:30 am)71.6 °F (6:00 pm)
Humidity68.2 %89 % (12:30 am)42 % (1:00 pm)
Barometer29.75 in29.83 in (8:00 am)29.65 in (4:00 pm)
Wind Speed5 mph11.5 mph (12:30 am)
Weather ElementAverage
Visibility6.1 mi
Wind DirectionSSE (158 °)

Weather ElementTotal
Precipitation---
Cooling Degree Days23.3 (Base 65)
Growing Degree Days38.3 (Base 50)
Averaged from 51 records on May 7, 2013
WEATHER CONDITIONS BREAKOUT
WIND DIRECTION BREAKOUT
WEATHER BY HOUR - MAY 7, 2013
[ °C ]   °F
Local TimeTemperatureDewpointHumidityBarometerVisibilityWind DirectionWind SpeedGust SpeedPrecipitationEventsConditions
12:30 AM78.8 °F75.2 °F89 %29.80 in3.1 miSouth (170°)11.5 mphRain-ThunderstormLight Thunderstorms and Rain
1:00 AM78.0 °F75.0 °F86 %29.79 in6.0 miCalmRain-ThunderstormThunderstorms and Rain
1:00 AM78.8 °F75.2 °F89 %29.77 in5.6 miCalmRainLight Rain
1:30 AM78.8 °F75.2 °F89 %29.77 in6.2 miNorth (10°)4.6 mphMostly Cloudy
2:00 AM78.8 °F75.2 °F89 %29.77 in6.2 miCalmMostly Cloudy
2:30 AM78.8 °F75.2 °F89 %29.74 in6.2 miEast (100°)2.3 mphMostly Cloudy
3:00 AM78.8 °F75.2 °F89 %29.74 in6.2 miCalmMostly Cloudy
3:30 AM78.8 °F75.2 °F89 %29.74 in6.2 miEast (100°)3.5 mphMostly Cloudy
4:00 AM78.8 °F75.2 °F89 %29.74 in6.2 miCalmMostly Cloudy
4:30 AM78.8 °F75.2 °F89 %29.74 in6.2 miEast (90°)3.5 mphMostly Cloudy
5:00 AM78.8 °F75.2 °F89 %29.74 in6.2 miEast (90°)3.5 mphMostly Cloudy
5:30 AM78.8 °F75.2 °F89 %29.74 in6.2 miEast (90°)3.5 mphMostly Cloudy
6:00 AM78.8 °F75.2 °F89 %29.77 in6.2 miEast (90°)3.5 mphMostly Cloudy
6:30 AM78.8 °F75.2 °F89 %29.77 in6.2 miEast (90°)3.5 mphMostly Cloudy
7:00 AM79.0 °F75.0 °F84 %29.79 in6.0 miESE (120°)5.8 mphPartly Cloudy
7:00 AM78.8 °F75.2 °F89 %29.77 in6.2 miESE (120°)5.8 mphMostly Cloudy
7:30 AM78.8 °F75.2 °F89 %29.80 in6.2 miEast (100°)3.5 mphMostly Cloudy
8:00 AM80.6 °F77.0 °F89 %29.83 in6.2 miESE (120°)5.8 mphMostly Cloudy
8:30 AM82.4 °F77.0 °F84 %29.83 in6.2 miEast (100°)2.3 mphMostly Cloudy
9:00 AM86.0 °F77.0 °F74 %29.83 in6.2 miSouth (170°)4.6 mphScattered Clouds
9:30 AM87.8 °F77.0 °F70 %29.83 in6.2 miSSE (150°)3.5 mphScattered Clouds
10:00 AM89.6 °F77.0 °F66 %29.83 in6.2 miSSW (210°)3.5 mphScattered Clouds
10:30 AM89.6 °F78.8 °F70 %29.83 in6.2 miWSW (250°)8.1 mphMostly Cloudy
11:00 AM93.2 °F77.0 °F59 %29.83 in6.2 miSSW (210°)6.9 mphMostly Cloudy
11:30 AM93.2 °F77.0 °F59 %29.80 in5.6 miWest (260°)5.8 mphMostly Cloudy
12:00 PM95.0 °F77.0 °F56 %29.80 in5.6 miWest (270°)6.9 mphMostly Cloudy
12:30 PM95.0 °F75.2 °F53 %29.77 in5.6 miWest (260°)4.6 mphMostly Cloudy
1:00 PM96.0 °F75.0 °F42 %29.77 in6.0 miWest (270°)5.8 mphScattered Clouds
1:00 PM96.8 °F75.2 °F50 %29.77 in6.2 miWest (270°)5.8 mphMostly Cloudy
1:30 PM96.8 °F75.2 °F50 %29.74 in6.2 miSouth (170°)3.5 mphMostly Cloudy
2:00 PM96.8 °F75.2 °F50 %29.74 in6.2 miEast (90°)3.5 mphMostly Cloudy
2:30 PM96.8 °F75.2 °F50 %29.74 in6.2 miEast (100°)2.3 mphMostly Cloudy
3:00 PM96.8 °F75.2 °F50 %29.71 in6.2 miCalmMostly Cloudy
3:30 PM98.6 °F75.2 °F47 %29.68 in6.2 miEast (90°)2.3 mphMostly Cloudy
4:00 PM96.8 °F75.2 °F50 %29.65 in6.2 miSouth (180°)5.8 mphMostly Cloudy
4:30 PM96.8 °F75.2 °F50 %29.65 in6.2 miSouth (190°)8.1 mphMostly Cloudy
5:00 PM96.8 °F73.4 °F47 %29.65 in6.2 miSW (220°)6.9 mphMostly Cloudy
5:30 PM95.0 °F73.4 °F49 %29.65 in6.2 miSSW (200°)8.1 mphMostly Cloudy
6:00 PM95.0 °F71.6 °F47 %29.65 in6.2 miSouth (190°)5.8 mphMostly Cloudy
6:30 PM93.2 °F71.6 °F49 %29.65 in6.2 miSSW (200°)9.2 mphMostly Cloudy
7:00 PM92.0 °F72.0 °F42 %29.70 in6.0 miSouth (180°)10.4 mphScattered Clouds
7:00 PM93.2 °F71.6 °F49 %29.68 in6.2 miSouth (180°)10.4 mphMostly Cloudy
7:30 PM91.4 °F73.4 °F55 %29.71 in6.2 miSouth (190°)5.8 mphMostly Cloudy
8:00 PM91.4 °F73.4 °F55 %29.71 in6.2 miSouth (190°)6.9 mphMostly Cloudy
8:30 PM91.4 °F75.2 °F59 %29.74 in6.2 miSSW (210°)6.9 mphMostly Cloudy
9:00 PM91.4 °F75.2 °F59 %29.74 in6.2 miSW (220°)9.2 mphMostly Cloudy
9:30 PM89.6 °F77.0 °F66 %29.77 in6.2 miWSW (240°)9.2 mphMostly Cloudy
10:00 PM87.8 °F75.2 °F66 %29.77 in6.2 miWNW (290°)6.9 mphMostly Cloudy
10:30 PM87.8 °F77.0 °F70 %29.77 in6.2 miWest (270°)5.8 mphMostly Cloudy
11:00 PM87.8 °F77.0 °F70 %29.77 in6.2 miWNW (290°)5.8 mphMostly Cloudy
11:30 PM87.8 °F77.0 °F70 %29.80 in6.2 miWNW (300°)4.6 mphMostly Cloudy
Hourly data recorded from VTBD, located miles away from Bangkok, Thailand







STORIES FROM OUR PARTNERS